Location: Newark
(34.0111°N, 88.4892°W)
Time: 06:41:41
(UTC+00:00)

Hubble Space Telescope - Visible Passes

Search period start: 28 February 2020 00:00
Search period end: 09 March 2020 00:00
Orbit: 536 x 540 km, 28.5° (Epoch: 27 February)

Date Brightness Start Highest point End Pass type
(mag) Time Alt. Az. Time Alt. Az. Time Alt. Az.
28 Feb 2.7 01:44:48 10° WSW 01:47:42 20° SSW 01:47:42 20° SSW visible
29 Feb 2.9 01:34:26 10° WSW 01:37:11 17° SSW 01:37:52 17° S visible
01 Mar 3.2 01:24:11 10° SW 01:26:27 14° SSW 01:28:06 12° S visible
02 Mar 3.4 01:14:18 10° SW 01:15:42 11° SSW 01:17:06 10° S visible
